This is the latest recevied weather packets stored in our database for station/object N4AR. If no packets are shown the sender has not sent any weather packets the latest 10 day(s).
| Time | Temp. | Humidity | Pressure | Rain* | Wind** | Luminosity | Snow |
|---|---|---|---|---|---|---|---|
| 1777496842 | 21.11° C | 70% | 1009 hPa | 0 mm | - | 39 W/m² | - |
| 1777496539 | 21.11° C | 70% | 1009.1 hPa | 0 mm | - | 36 W/m² | - |
| 1777496235 | 21.11° C | 69% | 1009.2 hPa | 0 mm | - | 32 W/m² | - |
| 1777495931 | 21.11° C | 70% | 1009.1 hPa | 0 mm | - | 42 W/m² | - |
| 1777495627 | 21.11° C | 69% | 1009.4 hPa | 0 mm | - | 73 W/m² | - |
| 1777495322 | 21.11° C | 70% | 1009.4 hPa | 0 mm | - | 46 W/m² | - |
| 1777495021 | 21.67° C | 70% | 1009.5 hPa | 0 mm | - | 60 W/m² | - |
| 1777494718 | 21.67° C | 66% | 1009.4 hPa | 0 mm | - | 69 W/m² | - |
| 1777494415 | 21.67° C | 66% | 1009.6 hPa | 0 mm | - | 55 W/m² | - |
| 1777494111 | 21.67° C | 66% | 1009.5 hPa | 0 mm | - | 61 W/m² | - |
| 1777493809 | 22.22° C | 66% | 1009.5 hPa | 0 mm | - | 84 W/m² | - |
| 1777493507 | 22.22° C | 62% | 1009.5 hPa | 0 mm | - | 85 W/m² | - |
| 1777493203 | 21.67° C | 64% | 1009.7 hPa | 0 mm | - | 98 W/m² | - |
| 1777492900 | 21.67° C | 65% | 1009.9 hPa | 0 mm | - | 79 W/m² | - |
| 1777492597 | 21.67° C | 68% | 1009.9 hPa | 0 mm | - | 86 W/m² | - |
| 1777492292 | 21.67° C | 69% | 1010.2 hPa | 0 mm | - | 131 W/m² | - |
| 1777491989 | 21.67° C | 69% | 1010.1 hPa | 0 mm | - | 99 W/m² | - |
| 1777491686 | 21.11° C | 69% | 1010.2 hPa | 0 mm | - | 146 W/m² | - |
| 1777491383 | 21.11° C | 70% | 1010.4 hPa | 0 mm | - | 111 W/m² | - |
| 1777491080 | 21.11° C | 70% | 1010.6 hPa | 0 mm | - | 133 W/m² | - |
| 1777490775 | 21.11° C | 68% | 1010.4 hPa | 0 mm | - | 120 W/m² | - |
| 1777490473 | 21.67° C | 68% | 1010.8 hPa | 0 mm | - | 130 W/m² | - |
| 1777490169 | 21.67° C | 67% | 1010.8 hPa | 0 mm | - | 148 W/m² | - |
| 1777489866 | 22.22° C | 65% | 1010.9 hPa | 0 mm | - | 133 W/m² | - |
| 1777489564 | 22.22° C | 66% | 1010.9 hPa | 0 mm | - | 181 W/m² | - |
* Rain latest hour (hover to see other rain measurements)
** Current wind speed in m/s (hover to see current wind gust speed)